Location: Cz?stochówka
(50.8142°N, 19.0915°E)
Time: 09:34:40
(UTC+00:00)

Cosmos 1745 Rocket - Pass Details

Date: 13 January 2026
Orbit: 952 x 996 km, 83.0° (Epoch: 17 February)

Event Time Altitude Azimuth Distance (km) Brightness Sun altitude
Exits shadow 03:49:17 62° 307° (NW) 1,070 3.9 -26.3°
Drops below altitude 10° 03:54:56 10° 5° (N) 2,692 6.3 -25.4°
Sets 03:57:28 0° 9° (N) 3,642 7.1 -25.0°
